Location: Gökbük
(36.4500°N, 30.1167°E)
Time: 14:03:29
(UTC+00:00)

Daily predictions for brighter satellites

Satellite Brightness Start Highest point End
(mag) Time Altitude Azimuth Time Altitude Azimuth Time Altitude Azimuth
Cosmos 2227 4.4 17:37:50 10° SSW 17:43:36 85° WNW 17:49:23 10° NNE
Cosmos 2221 Rocket 3.9 17:44:19 10° SSE 17:48:30 46° E 17:52:42 10° NNE
NOSS 2-2 (D) 4.0 17:46:08 10° S 17:49:11 24° ESE 17:51:53 10° ENE
SPOT 1/Viking Rocket 4.3 17:48:00 10° S 17:53:02 55° W 17:58:07 10° NNW
Cosmos 2098 Rocket 2.8 17:49:13 10° N 17:53:15 52° E 17:56:34 10° SSE
Cosmos 405 Rocket 3.3 17:50:25 10° NNW 17:53:59 55° W 17:57:28 10° S
Cosmos 923 Rocket 4.0 17:50:34 10° NNW 17:55:46 71° ENE 18:00:55 10° SSE
GP-B 4.2 17:52:15 10° NNE 17:55:59 26° E 17:59:41 10° SE
MOS 1-B Rocket 4.0 17:50:21 10° SSE 17:56:00 88° WSW 18:02:15 10° NNW
Lacrosse 5 2.6 17:52:30 10° SW 17:57:28 58° NW 18:02:27 10° NNE
Cosmos 1674 Rocket 3.5 17:54:05 10° S 17:58:20 70° E 18:02:37 10° NNE
Okean 1 Rocket 4.1 17:54:27 10° NNE 17:58:21 29° ENE 18:02:12 10° SE
CARTOSAT-1 3.5 17:54:32 10° SSE 17:58:47 86° ENE 18:03:04 10° N
DELTA 2 DEB (DPAF) 4.0 17:55:20 10° NNE 17:59:29 60° ESE 18:03:36 10° S
ATLAS 5 CENTAUR R/B 2.0 17:58:14 10° SW 18:01:22 47° NW 18:04:41 10° NNE
Sich 1 Rocket 3.9 17:57:06 10° N 18:01:26 50° E 18:05:47 10° SSE
Cosmos 1025 Rocket 3.9 17:58:07 10° SSE 18:01:45 28° E 18:05:23 10° NNE
Cosmos 1943 3.2 17:56:32 10° NNW 18:02:10 79° ENE 18:07:48 10° SSE
Cosmos 1844 Rocket 2.6 17:59:03 10° SSW 18:04:36 83° ESE 18:10:11 10° NNE
Resurs 01 Rocket 2.1 18:09:09 10° S 18:13:28 61° W 18:17:49 10° NNW
SWAS 4.4 18:10:57 10° S 18:15:04 62° ESE 18:19:14 10° NNE
Cosmos 2154 Rocket 4.5 18:12:53 10° SSE 18:18:45 42° E 18:24:39 10° NNE
CZ-4 R/B 3.6 18:16:34 10° SSW 18:19:53 24° W 18:23:11 10° NW
Cosmos 2074 Rocket 4.1 18:14:18 10° SSE 18:20:22 56° E 18:26:28 10° NNE
Okean O Rocket 1.7 18:16:43 10° S 18:21:02 77° W 18:25:21 10° NNW
SL-24 R/B 4.2 18:17:43 10° S 18:21:18 60° W 18:25:04 10° NNW
Okean 2 Rocket 3.1 18:18:16 10° N 18:22:47 89° W 18:27:14 10° S
Cosmos 2151 Rocket 3.7 18:19:39 10° N 18:24:04 77° W 18:28:30 10° S
CSL-04 Rocket 4.2 18:19:15 10° S 18:24:37 62° WSW 18:30:07 10° NNW
Cosmos 1680 Rocket 3.6 18:20:46 10° NNW 18:26:01 82° WSW 18:31:00 11° SSE
Cosmos 1603 3.7 18:22:10 10° NNW 18:27:53 79° ENE 18:32:30 16° SSE
PSLV R/B 3.8 18:25:02 10° S 18:28:28 68° WSW 18:32:01 10° NNW
Ariane Rocket 4.5 18:27:09 15° ESE 18:29:44 21° ENE 18:33:29 10° NNE
USA 215 3.6 18:28:31 16° ESE 18:33:51 60° NE 18:40:17 10° NW
Cosmos 1607 4.3 18:28:11 10° NW 18:34:25 62° WSW 18:39:52 13° SSE
SPOT 5 3.0 18:30:59 17° SSE 18:34:33 60° ENE 18:39:33 10° N
MOS 1 Rocket 4.4 18:32:30 19° ESE 18:34:48 28° ENE 18:38:39 10° NNE
NOSS 2-3 (D) 3.0 18:33:51 10° SSW 18:37:34 83° ESE 18:41:20 10° NNE
Cosmos 2112 Rocket 4.2 18:37:29 10° NNW 18:42:42 69° WSW 18:47:01 15° S
Cosmos 921 Rocket 3.7 18:39:39 10° N 18:43:30 35° ENE 18:45:03 26° ESE
Timation 2 Rocket 3.9 18:37:43 10° SSW 18:44:07 73° ESE 18:50:16 10° NNE
ARGOS Delta rocket 4.3 18:42:51 10° S 18:47:18 57° W 18:52:04 10° NNW
Cosmos 494 Rocket 4.1 18:42:31 10° N 18:47:42 58° ENE 18:50:31 26° SE
Okean-O 2.8 18:45:17 16° S 18:48:42 71° WSW 18:53:07 10° NNW
NOSS 3-1 (C) 4.4 18:49:57 18° E 18:49:57 18° E 18:52:23 10° ENE
OAO 2 Rocket 3.7 18:45:10 10° W 18:50:13 51° SSW 18:52:42 28° SE
Cosmos 1125 Rocket 3.7 18:46:49 14° S 18:51:07 51° ESE 18:56:15 10° NNE
Yuri Rocket 4.5 18:45:32 10° WSW 18:52:37 40° S 18:55:12 27° SE
Geosat 4.3 18:50:02 10° NE 18:54:49 45° ESE 18:57:46 22° S
SPOT 3 Rocket 4.3 18:57:54 27° ESE 18:59:55 38° ENE 19:04:43 10° N
CZ-4C R/B 3.7 18:57:51 10° N 19:01:26 54° WNW 19:04:26 13° SSW
In-Cosmos 22 Rocket 4.2 19:02:31 14° S 19:07:30 87° E 19:13:12 10° N
Nadezhda 3 Rocket 3.9 19:06:02 10° N 19:12:12 81° E 19:15:33 29° SSE
Terra 1.7 19:13:57 40° SSE 19:15:39 79° ENE 19:20:23 10° N
Hubble Space Telescope 2.3 19:14:49 10° WSW 19:16:52 21° SSW 19:16:52 21° SSW
Cosmos 2327 Rocket 4.4 19:15:35 24° S 19:19:27 79° E 19:25:45 10° N
Cosmos 1544 Rocket 4.4 19:17:03 10° NNE 19:20:58 33° ENE 19:21:00 33° E
H-II Stage 2 3.6 19:19:25 10° WSW 19:22:47 34° S 19:23:25 33° SSE
Cosmos 1437 Rocket 3.6 19:32:35 34° NE 19:32:35 34° NE 19:34:59 10° NNE
Cosmos 962 Rocket 4.4 19:30:18 33° S 19:33:20 82° E 19:39:31 10° N
Meteor 2-1 Rocket 4.1 19:29:19 10° N 19:34:55 86° E 19:36:36 47° SSE
Cosmos 1833 Rocket 3.5 19:30:16 10° N 19:35:27 36° ENE 19:36:42 32° E
ATLAS CENTAUR R/B 1.3 19:31:48 10° NNW 19:35:51 68° ENE 19:35:58 67° ENE
Cosmos 1975 Rocket 4.1 19:35:44 21° SW 19:38:20 43° W 19:42:36 10° N
Cosmos 44 3.5 19:33:05 10° SSW 19:38:24 77° WNW 19:43:35 10° NNE
Cosmos 468 4.4 19:33:39 10° NNW 19:39:00 85° ENE 19:40:11 56° SSE
ERS-1 Rocket 3.6 19:38:07 31° SSW 19:40:08 48° W 19:44:59 10° NNW
Cosmos 2218 Rocket 4.1 19:38:57 46° SE 19:40:19 56° E 19:46:19 10° NNE
Spot 2 Rocket 3.6 19:39:22 44° S 19:40:55 69° WSW 19:46:01 10° NNW
Cosmos 1455 Rocket 4.0 19:37:15 10° NNW 19:41:24 43° W 19:42:42 33° SW
Spot 1 4.3 19:39:41 10° NNE 19:44:47 72° ESE 19:45:25 63° SSE
Cosmos 2082 Rocket 4.3 19:45:31 10° NNE 19:48:03 13° NE 19:49:50 11° ENE
Cosmos 2278 Rocket 2.5 19:49:26 47° E 19:49:26 47° E 19:54:37 10° NNE
Cosmos 2341 Rocket 3.9 19:48:47 42° S 19:51:08 90° NNW 19:57:29 10° N
Cosmos 220 Rocket 4.2 19:48:13 10° N 19:51:52 56° NE 19:51:52 56° NE
Cosmos 2298 Rocket 4.1 19:53:06 41° SSW 19:54:57 76° WNW 20:00:18 10° NNE
MetOp-A 3.9 19:57:03 59° ENE 19:57:03 59° ENE 20:01:19 10° N
Landsat 5 3.5 19:53:37 10° N 19:58:00 81° WNW 19:58:00 81° WNW
Cosmos 1606 3.9 20:01:29 10° NNW 20:04:09 35° WNW 20:04:09 35° WNW
Cosmos 614 Rocket 4.4 20:00:03 10° N 20:04:47 45° ENE 20:04:47 45° ENE
Ariane Rocket 3.9 20:07:17 36° SW 20:08:21 40° W 20:13:07 10° NNW
Cosmos 1536 Rocket 3.8 20:10:07 64° NNW 20:10:07 64° NNW 20:13:50 10° N
ATLAS 3B R/B 3.1 20:14:16 46° ESE 20:14:16 46° ESE 20:20:56 10° NE
USA 215 4.1 20:15:52 32° SW 20:16:59 34° SW 20:22:51 10° WNW
ARIANE 5 R/B 3.8 20:21:27 34° NE 20:21:27 34° NE 20:24:36 10° N
Cosmos 1727 Rocket 4.2 20:17:35 10° N 20:23:48 54° E 20:24:04 54° E
Cosmos 1821 Rocket 3.8 20:25:12 73° SE 20:25:40 78° E 20:32:01 10° N
Cosmos 1943 Rocket 2.5 20:26:52 53° ENE 20:26:52 53° ENE 20:31:30 10° NNE
Cosmos 2228 4.2 20:28:24 10° NNW 20:31:33 38° WNW 20:31:33 38° WNW
NOSS 3-1 (C) 4.0 20:37:12 29° W 20:39:01 41° NW 20:44:13 10° NNE
SeaSat 1 3.9 20:47:14 27° NE 20:47:14 27° NE 20:51:14 10° N
NOSS 3-1 (A) 3.8 21:16:36 47° NW 21:16:36 47° NW 21:21:40 10° NNE
Cosmos 1833 Rocket 4.2 21:14:27 10° NW 21:18:22 27° W 21:18:22 27° W
Cosmos 2123 Rocket 4.1 21:17:22 10° N 21:23:11 72° NE 21:23:11 72° NE
Cosmos 2082 Rocket 2.6 21:27:13 10° NNW 21:31:39 57° NNW 21:31:39 57° NNW
Cosmos 2278 Rocket 4.2 21:31:13 18° W 21:33:29 22° WNW 21:37:52 10° N
Cosmos 2369 Rocket 3.5 21:37:51 30° ENE 21:37:51 30° ENE 21:41:01 10° NE
USA 229 DEB 3.8 21:44:54 58° NE 21:44:54 58° NE 21:50:10 10° NE
USA 229 3.8 21:45:03 58° NE 21:45:03 58° NE 21:50:18 10° NE
CZ-4C R/B 3.6 21:50:23 10° NNW 21:57:41 52° NE 22:00:34 38° ESE
COSMOS 2406 4.0 21:56:48 10° NNW 22:00:48 44° NW 22:00:48 44° NW
ATLAS 3B R/B 4.0 22:01:26 25° W 22:04:46 36° NW 22:11:40 10° NNE
USA 281 3.1 22:09:48 81° NNE 22:09:48 81° NNE 22:16:10 10° NNW
Cosmos 1943 Rocket 4.3 22:08:20 16° WNW 22:10:05 18° NW 22:13:53 10° NNW
Meteor 2-3 Rocket 4.4 22:21:26 48° NW 22:21:26 48° NW 22:26:03 10° N
SeaSat 1 4.3 22:26:56 21° WNW 22:26:56 21° WNW 22:28:53 10° NW
H-2A R/B 4.1 22:22:51 10° N 22:24:34 24° N 22:24:34 24° N
Cosmos 1459 Rocket 4.3 22:31:47 60° ENE 22:31:47 60° ENE 22:37:35 10° NNE
BREEZE-M DEB (TANK) 4.2 22:14:32 10° WSW 22:31:47 62° NW 22:36:04 10° NE
USA 234 3.3 22:28:21 10° NE 22:34:08 64° E 22:34:08 64° E
Cosmos 2100 Rocket 4.1 22:40:39 71° NE 22:40:39 71° NE 22:46:13 10° N
Lacrosse 5 rocket 3.8 22:44:25 19° NNE 22:44:25 19° NNE 22:45:45 10° NNE
Cosmos 1802 Rocket 4.3 22:43:14 57° E 22:43:14 57° E 22:49:06 10° NNE
Nimbus 7 Rocket 4.5 22:48:41 10° NNE 22:54:09 75° N 22:54:09 75° N
ASTEX 1 4.4 22:56:37 42° NE 22:56:37 42° NE 23:00:30 10° N
Cosmos 2173 Rocket 4.1 23:05:22 64° NW 23:05:22 64° NW 23:10:56 10° N
SJ 16-02 4.2 23:03:59 10° NE 23:05:29 11° ENE 23:06:59 10° E
CZ-2D R/B 3.7 23:03:08 10° NE 23:07:07 23° E 23:07:07 23° E
Cosmos 1452 Rocket 4.0 23:11:08 55° NE 23:11:08 55° NE 23:15:22 10° NNE
Meteor 2-15 Rocket 4.4 23:11:01 72° NW 23:11:01 72° NW 23:16:43 10° N
CENTAUR R/B 4.1 23:05:23 10° NNW 23:13:35 49° NE 23:22:31 10° SE
NPP 4.4 23:11:12 10° NNE 23:16:02 42° E 23:16:02 42° E
Lacrosse 4 Rocket 3.5 23:20:40 20° NNW 23:20:40 20° NNW 23:22:43 10° N
Cosmos 2369 Rocket 3.7 23:19:37 25° WNW 23:19:56 25° WNW 23:24:29 10° N
MSX 4.3 23:21:14 10° NNE 23:26:50 50° E 23:27:05 50° ESE
BREEZE M DEB (TANK) 3.7 23:21:47 10° NW 23:33:46 90° SW 23:33:53 86° SE
Cosmos 1331 Rocket 4.2 23:39:12 63° NNW 23:39:12 63° NNW 23:43:49 10° NNE
ALOS 4.3 23:41:38 10° NE 23:44:49 18° E 23:45:42 17° ESE
CZ-4C R/B 3.7 23:39:01 10° NW 23:45:35 39° WSW 23:45:35 39° WSW
COSMOS 2455 2.7 23:40:32 10° NNW 23:46:35 84° WSW 23:46:54 80° S
Resurs 1-4 Rocket 2.2 23:42:35 10° NNE 23:47:52 63° ESE 23:48:07 62° ESE
Tiangong 1.1 23:51:03 11° ENE 23:51:03 11° ENE 23:51:15 10° ENE
Meteor 1-20 Rocket 4.1 23:48:13 74° W 23:48:14 74° W 23:53:53 10° N
Cosmos 1741 Rocket 3.9 23:47:49 10° NNW 23:53:07 81° ENE 23:53:19 78° ESE
ADEOS II 2.8 23:48:52 10° NNE 23:53:52 43° E 23:54:39 40° ESE
